This is the latest recevied weather packets stored in our database for station/object KC5AV. If no packets are shown the sender has not sent any weather packets the latest 10 day(s).
| Time | Temp. | Humidity | Pressure | Rain* | Wind** | Luminosity | Snow |
|---|---|---|---|---|---|---|---|
| 1777930638 | 27.22° C | 45% | 1011.5 hPa | 0 mm | - | 499 W/m² | - |
| 1777930334 | 27.22° C | 48% | 1011.4 hPa | 0 mm | - | 554 W/m² | - |
| 1777930031 | 27.22° C | 45% | 1011.7 hPa | 0 mm | - | 458 W/m² | - |
| 1777929728 | 27.22° C | 46% | 1011.4 hPa | 0 mm | - | 570 W/m² | - |
| 1777929425 | 27.22° C | 47% | 1011.8 hPa | 0 mm | - | 571 W/m² | - |
| 1777929121 | 26.67° C | 47% | 1011.8 hPa | 0 mm | - | 620 W/m² | - |
| 1777928819 | 27.22° C | 45% | 1011.9 hPa | 0 mm | - | 554 W/m² | - |
| 1777928516 | 26.67° C | 46% | 1012.2 hPa | 0 mm | - | 606 W/m² | - |
| 1777928213 | 27.22° C | 44% | 1012.3 hPa | 0 mm | - | 614 W/m² | - |
| 1777927910 | 27.22° C | 45% | 1012.3 hPa | 0 mm | - | 500 W/m² | - |
| 1777927609 | 27.22° C | 48% | 1012.3 hPa | 0 mm | - | 732 W/m² | - |
| 1777927307 | 26.67° C | 50% | 1012.5 hPa | 0 mm | - | 725 W/m² | - |
| 1777927006 | 26.67° C | 45% | 1012.8 hPa | 0 mm | - | 666 W/m² | - |
| 1777926703 | 26.67° C | 46% | 1012.8 hPa | 0 mm | - | 619 W/m² | - |
| 1777926403 | 26.67° C | 48% | 1012.8 hPa | 0 mm | - | 618 W/m² | - |
| 1777926100 | 27.22° C | 45% | 1012.8 hPa | 0 mm | - | 736 W/m² | - |
| 1777925797 | 26.67° C | 47% | 1013 hPa | 0 mm | - | 802 W/m² | - |
| 1777925495 | 26.67° C | 46% | 1013.1 hPa | 0 mm | - | 699 W/m² | - |
| 1777925192 | 26.67° C | 46% | 1013.3 hPa | 0 mm | - | 802 W/m² | - |
| 1777924888 | 26.67° C | 44% | 1013.2 hPa | 0 mm | - | 832 W/m² | - |
| 1777924584 | 26.67° C | 46% | 1013.3 hPa | 0 mm | - | 705 W/m² | - |
| 1777924281 | 26.67° C | 45% | 1013.5 hPa | 0 mm | - | 866 W/m² | - |
| 1777923977 | 26.67° C | 46% | 1013.6 hPa | 0 mm | - | 873 W/m² | - |
| 1777923673 | 26.67° C | 43% | 1013.6 hPa | 0 mm | - | 781 W/m² | - |
| 1777923370 | 26.67° C | 45% | 1013.6 hPa | 0 mm | - | 786 W/m² | - |
* Rain latest hour (hover to see other rain measurements)
** Current wind speed in m/s (hover to see current wind gust speed)